| time (UTC) | temp C | wind direction | speed KPH | gust KPH | rain 1hr cm | rain 24hr cm | rain mn cm | humidity % | barometer mb |
| 20260509044025 | 12 | 0 | 0.0 | 4.8 | 0.00 | 0.00 | 0.00 | 90 | 1010.9 |
| 20260509043525 | 12 | 48 | 0.0 | 4.8 | 0.00 | 0.00 | 0.00 | 90 | 1011.0 |
| 20260509043048 | 12 | 0 | 0.0 | 4.8 | 0.00 | 0.00 | 0.00 | 89 | 1011.0 |
| 20260509042526 | 13 | 0 | 0.0 | 0.0 | 0.00 | 0.00 | 0.00 | 89 | 1011.1 |
| 20260509042026 | 13 | 0 | 0.0 | 0.0 | 0.00 | 0.00 | 0.00 | 89 | 1011.1 |
| 20260509041539 | 13 | 0 | 0.0 | 1.6 | 0.00 | 0.00 | 0.00 | 89 | 1011.1 |
| 20260509041027 | 13 | 0 | 0.0 | 3.2 | 0.00 | 0.00 | 0.00 | 88 | 1011.1 |
| 20260509040524 | 13 | 0 | 0.0 | 3.2 | 0.00 | 0.00 | 0.00 | 88 | 1011.1 |
| 20260509040042 | 13 | 0 | 0.0 | 1.6 | 0.00 | 0.00 | 0.00 | 88 | 1011.1 |
| 20260509035527 | 13 | 0 | 0.0 | 1.6 | 0.00 | 0.00 | 0.00 | 87 | 1011.2 |
| 20260509035026 | 13 | 0 | 0.0 | 0.0 | 0.00 | 0.00 | 0.00 | 87 | 1011.1 |
| 20260509034541 | 13 | 0 | 0.0 | 3.2 | 0.00 | 0.00 | 0.00 | 87 | 1011.1 |
| 20260509034023 | 13 | 0 | 0.0 | 3.2 | 0.00 | 0.00 | 0.00 | 87 | 1011.1 |
| 20260509033523 | 13 | 0 | 0.0 | 3.2 | 0.00 | 0.00 | 0.00 | 86 | 1011.3 |
| 20260509033038 | 13 | 0 | 0.0 | 3.2 | 0.00 | 0.00 | 0.00 | 86 | 1011.4 |
| 20260509032523 | 13 | 0 | 0.0 | 3.2 | 0.00 | 0.00 | 0.00 | 86 | 1011.4 |
| 20260509032025 | 13 | 0 | 0.0 | 3.2 | 0.00 | 0.00 | 0.00 | 85 | 1011.5 |
| 20260509031554 | 13 | 0 | 0.0 | 1.6 | 0.00 | 0.00 | 0.00 | 85 | 1011.5 |
| 20260509031026 | 13 | 0 | 0.0 | 1.6 | 0.00 | 0.00 | 0.00 | 84 | 1011.6 |
| 20260509030525 | 13 | 0 | 0.0 | 3.2 | 0.00 | 0.00 | 0.00 | 84 | 1011.7 |
| 20260509030058 | 13 | 0 | 0.0 | 3.2 | 0.00 | 0.00 | 0.00 | 84 | 1011.6 |
| 20260509025523 | 13 | 0 | 0.0 | 4.8 | 0.00 | 0.00 | 0.00 | 84 | 1011.5 |
| 20260509025023 | 13 | 0 | 0.0 | 8.0 | 0.00 | 0.00 | 0.00 | 83 | 1011.7 |
| 20260509024540 | 13 | 187 | 0.0 | 8.0 | 0.00 | 0.00 | 0.00 | 83 | 1011.7 |
| 20260509024024 | 13 | 60 | 0.0 | 3.2 | 0.00 | 0.00 | 0.00 | 82 | 1011.7 |
| 20260509023524 | 13 | 0 | 0.0 | 6.4 | 0.00 | 0.00 | 0.00 | 82 | 1011.8 |
| 20260509023037 | 14 | 0 | 0.0 | 6.4 | 0.00 | 0.00 | 0.00 | 82 | 1011.8 |
| 20260509022525 | 14 | 154 | 0.0 | 6.4 | 0.00 | 0.00 | 0.00 | 81 | 1011.7 |
| 20260509022023 | 14 | 121 | 0.0 | 6.4 | 0.00 | 0.00 | 0.00 | 81 | 1011.6 |
| 20260509021540 | 15 | 0 | 0.0 | 4.8 | 0.00 | 0.00 | 0.00 | 79 | 1011.5 |
| 20260509021023 | 15 | 0 | 0.0 | 4.8 | 0.00 | 0.00 | 0.00 | 78 | 1011.3 |
| 20260509020523 | 15 | 0 | 0.0 | 1.6 | 0.00 | 0.00 | 0.00 | 76 | 1011.1 |
| 20260509020043 | 15 | 0 | 0.0 | 1.6 | 0.00 | 0.00 | 0.00 | 76 | 1011.0 |
| 20260509015525 | 15 | 0 | 0.0 | 3.2 | 0.00 | 0.00 | 0.00 | 75 | 1010.8 |
| 20260509015026 | 15 | 0 | 0.0 | 3.2 | 0.00 | 0.00 | 0.00 | 76 | 1010.8 |
| 20260509014539 | 16 | 0 | 0.0 | 1.6 | 0.00 | 0.00 | 0.00 | 72 | 1010.8 |
| 20260509014026 | 16 | 0 | 0.0 | 1.6 | 0.00 | 0.00 | 0.00 | 72 | 1010.6 |
| 20260509013528 | 16 | 0 | 0.0 | 0.0 | 0.00 | 0.00 | 0.00 | 72 | 1010.7 |
| 20260509013038 | 16 | 0 | 0.0 | 1.6 | 0.00 | 0.00 | 0.00 | 69 | 1010.6 |
| 20260509012527 | 16 | 0 | 0.0 | 6.4 | 0.00 | 0.00 | 0.00 | 67 | 1010.7 |
| 20260509012030 | 16 | 0 | 0.0 | 6.4 | 0.00 | 0.00 | 0.00 | 67 | 1010.8 |
| 20260509011537 | 16 | 175 | 1.6 | 11.3 | 0.00 | 0.00 | 0.00 | 66 | 1010.9 |
| 20260509011027 | 16 | 218 | 1.6 | 11.3 | 0.00 | 0.00 | 0.00 | 66 | 1010.8 |
| 20260509010526 | 16 | 220 | 3.2 | 11.3 | 0.00 | 0.00 | 0.00 | 67 | 1011.0 |
| 20260509010037 | 16 | 182 | 0.0 | 3.2 | 0.00 | 0.00 | 0.00 | 69 | 1010.9 |
| 20260509005526 | 16 | 0 | 0.0 | 0.0 | 0.00 | 0.00 | 0.00 | 66 | 1010.8 |
| 20260509005026 | 16 | 0 | 0.0 | 0.0 | 0.00 | 0.00 | 0.00 | 64 | 1010.7 |
| 20260509004549 | 17 | 0 | 0.0 | 0.0 | 0.00 | 0.00 | 0.00 | 63 | 1010.6 |
| 20260509004027 | 17 | 0 | 0.0 | 0.0 | 0.00 | 0.00 | 0.00 | 62 | 1010.5 |
| 20260509003526 | 17 | 0 | 0.0 | 0.0 | 0.00 | 0.00 | 0.00 | 61 | 1010.4 |
| 20260509003049 | 17 | 0 | 0.0 | 0.0 | 0.00 | 0.00 | 0.00 | 61 | 1010.3 |
| 20260509002526 | 17 | 0 | 0.0 | 0.0 | 0.00 | 0.00 | 0.00 | 59 | 1010.3 |
| 20260509002026 | 17 | 0 | 0.0 | 0.0 | 0.00 | 0.00 | 0.00 | 58 | 1010.3 |
| 20260509001538 | 17 | 0 | 0.0 | 1.6 | 0.00 | 0.00 | 0.00 | 57 | 1010.3 |
| 20260509001025 | 17 | 0 | 0.0 | 1.6 | 0.00 | 0.00 | 0.00 | 58 | 1010.5 |
| 20260509000525 | 17 | 0 | 0.0 | 3.2 | 0.00 | 0.00 | 0.00 | 56 | 1010.6 |
| 20260509000038 | 17 | 0 | 0.0 | 3.2 | 0.00 | 0.00 | 0.00 | 55 | 1010.7 |
| 20260508235524 | 18 | 0 | 0.0 | 1.6 | 0.00 | 0.00 | 0.00 | 55 | 1010.6 |
| 20260508235027 | 17 | 0 | 0.0 | 3.2 | 0.00 | 0.00 | 0.00 | 54 | 1010.5 |
| 20260508234544 | 18 | 0 | 0.0 | 3.2 | 0.00 | 0.00 | 0.00 | 56 | 1010.4 |
| 20260508234026 | 18 | 0 | 0.0 | 0.0 | 0.00 | 0.00 | 0.00 | 56 | 1010.4 |
| 20260508233524 | 18 | 0 | 0.0 | 1.6 | 0.00 | 0.00 | 0.00 | 57 | 1010.3 |
| 20260508233040 | 18 | 0 | 0.0 | 3.2 | 0.00 | 0.00 | 0.00 | 57 | 1010.2 |
| 20260508232525 | 18 | 0 | 0.0 | 3.2 | 0.00 | 0.00 | 0.00 | 56 | 1010.2 |
| 20260508232027 | 18 | 0 | 0.0 | 3.2 | 0.00 | 0.00 | 0.00 | 55 | 1010.2 |
| 20260508231538 | 18 | 0 | 0.0 | 3.2 | 0.00 | 0.00 | 0.00 | 53 | 1010.4 |
| 20260508231027 | 18 | 0 | 0.0 | 6.4 | 0.00 | 0.00 | 0.00 | 54 | 1010.5 |
| 20260508230526 | 18 | 0 | 0.0 | 6.4 | 0.00 | 0.00 | 0.00 | 53 | 1010.4 |
| 20260508230040 | 18 | 187 | 1.6 | 6.4 | 0.00 | 0.00 | 0.00 | 51 | 1010.5 |
| 20260508225527 | 18 | 186 | 1.6 | 4.8 | 0.00 | 0.00 | 0.00 | 51 | 1010.2 |
| 20260508225024 | 18 | 185 | 0.0 | 4.8 | 0.00 | 0.00 | 0.00 | 52 | 1010.3 |
| 20260508224549 | 18 | 185 | 1.6 | 4.8 | 0.00 | 0.00 | 0.00 | 50 | 1010.2 |
| 20260508224027 | 19 | 194 | 1.6 | 6.4 | 0.00 | 0.00 | 0.00 | 54 | 1010.2 |
| 20260508223527 | 19 | 157 | 1.6 | 8.0 | 0.00 | 0.00 | 0.00 | 54 | 1010.2 |
| 20260508223047 | 19 | 175 | 1.6 | 8.0 | 0.00 | 0.00 | 0.00 | 51 | 1010.2 |
| 20260508222526 | 19 | 187 | 1.6 | 6.4 | 0.00 | 0.00 | 0.00 | 53 | 1010.2 |
| 20260508222026 | 19 | 182 | 1.6 | 6.4 | 0.00 | 0.00 | 0.00 | 50 | 1010.1 |
| 20260508221543 | 19 | 0 | 3.2 | 6.4 | 0.00 | 0.00 | 0.00 | 51 | 1010.1 |
| 20260508221030 | 19 | 207 | 3.2 | 11.3 | 0.00 | 0.00 | 0.00 | 53 | 1010.2 |
| 20260508220523 | 19 | 213 | 3.2 | 11.3 | 0.00 | 0.00 | 0.00 | 49 | 1010.2 |
| 20260508220048 | 19 | 184 | 3.2 | 9.7 | 0.00 | 0.00 | 0.00 | 48 | 1010.1 |
| 20260508215523 | 19 | 0 | 3.2 | 11.3 | 0.00 | 0.00 | 0.00 | 49 | 1010.1 |
| 20260508215024 | 19 | 130 | 1.6 | 11.3 | 0.00 | 0.00 | 0.00 | 51 | 1010.0 |
| 20260508214539 | 19 | 203 | 1.6 | 8.0 | 0.00 | 0.00 | 0.00 | 49 | 1010.0 |
| 20260508214026 | 19 | 180 | 0.0 | 8.0 | 0.00 | 0.00 | 0.00 | 53 | 1010.1 |
| 20260508213523 | 19 | 155 | 3.2 | 17.7 | 0.00 | 0.00 | 0.00 | 47 | 1010.1 |
| 20260508213037 | 19 | 0 | 1.6 | 17.7 | 0.00 | 0.00 | 0.00 | 51 | 1010.2 |
| 20260508212527 | 20 | 321 | 3.2 | 14.5 | 0.00 | 0.00 | 0.00 | 48 | 1010.2 |
| 20260508212026 | 20 | 0 | 1.6 | 9.7 | 0.00 | 0.00 | 0.00 | 50 | 1010.3 |
| 20260508211540 | 20 | 171 | 1.6 | 14.5 | 0.00 | 0.00 | 0.00 | 49 | 1010.2 |
| 20260508211025 | 20 | 176 | 4.8 | 14.5 | 0.00 | 0.00 | 0.00 | 46 | 1010.3 |
| 20260508210524 | 20 | 173 | 3.2 | 12.9 | 0.00 | 0.00 | 0.00 | 48 | 1010.4 |
| 20260508210044 | 20 | 197 | 3.2 | 12.9 | 0.00 | 0.00 | 0.00 | 52 | 1010.4 |
| 20260508205523 | 20 | 195 | 1.6 | 8.0 | 0.00 | 0.00 | 0.00 | 51 | 1010.6 |
| 20260508205023 | 20 | 219 | 3.2 | 14.5 | 0.00 | 0.00 | 0.00 | 46 | 1010.7 |
| 20260508204538 | 20 | 0 | 3.2 | 16.1 | 0.00 | 0.00 | 0.00 | 48 | 1010.8 |
| 20260508204024 | 20 | 198 | 1.6 | 16.1 | 0.00 | 0.00 | 0.00 | 49 | 1010.9 |
| 20260508203524 | 20 | 184 | 6.4 | 16.1 | 0.00 | 0.00 | 0.00 | 46 | 1011.0 |
| 20260508203042 | 20 | 177 | 1.6 | 12.9 | 0.00 | 0.00 | 0.00 | 47 | 1011.0 |
| 20260508202526 | 20 | 173 | 4.8 | 12.9 | 0.00 | 0.00 | 0.00 | 46 | 1011.1 |
| 20260508202029 | 20 | 187 | 4.8 | 11.3 | 0.00 | 0.00 | 0.00 | 45 | 1011.2 |
| 20260508201541 | 20 | 211 | 3.2 | 11.3 | 0.00 | 0.00 | 0.00 | 48 | 1011.3 |
| 20260508201029 | 20 | 269 | 3.2 | 11.3 | 0.00 | 0.00 | 0.00 | 48 | 1011.3 |
| 20260508200523 | 20 | 217 | 1.6 | 11.3 | 0.00 | 0.00 | 0.00 | 49 | 1011.5 |
| 20260508200038 | 19 | 205 | 1.6 | 14.5 | 0.00 | 0.00 | 0.00 | 49 | 1011.6 |
| 20260508195530 | 19 | 182 | 3.2 | 14.5 | 0.00 | 0.00 | 0.00 | 53 | 1011.5 |
| 20260508195026 | 19 | 213 | 4.8 | 16.1 | 0.00 | 0.00 | 0.00 | 46 | 1011.6 |
| 20260508194540 | 19 | 197 | 4.8 | 16.1 | 0.00 | 0.00 | 0.00 | 49 | 1011.6 |
| 20260508194023 | 19 | 182 | 3.2 | 17.7 | 0.00 | 0.00 | 0.00 | 49 | 1011.7 |
| 20260508193524 | 19 | 203 | 3.2 | 17.7 | 0.00 | 0.00 | 0.00 | 47 | 1011.7 |
| 20260508193038 | 19 | 0 | 1.6 | 11.3 | 0.00 | 0.00 | 0.00 | 47 | 1011.7 |
| 20260508192525 | 20 | 186 | 6.4 | 14.5 | 0.00 | 0.00 | 0.00 | 46 | 1011.8 |
| 20260508192023 | 20 | 178 | 4.8 | 14.5 | 0.00 | 0.00 | 0.00 | 49 | 1011.8 |
| 20260508191548 | 20 | 194 | 4.8 | 17.7 | 0.00 | 0.00 | 0.00 | 48 | 1011.7 |
| 20260508191026 | 20 | 184 | 1.6 | 17.7 | 0.00 | 0.00 | 0.00 | 48 | 1011.8 |
| 20260508190526 | 21 | 201 | 4.8 | 14.5 | 0.00 | 0.00 | 0.00 | 44 | 1011.9 |
| 20260508190040 | 21 | 158 | 3.2 | 14.5 | 0.00 | 0.00 | 0.00 | 48 | 1012.0 |
| 20260508185526 | 21 | 0 | 4.8 | 14.5 | 0.00 | 0.00 | 0.00 | 45 | 1012.1 |
| 20260508185027 | 21 | 181 | 3.2 | 19.3 | 0.00 | 0.00 | 0.00 | 48 | 1012.3 |
| 20260508184539 | 20 | 220 | 6.4 | 19.3 | 0.00 | 0.00 | 0.00 | 45 | 1012.3 |
| 20260508184023 | 20 | 188 | 6.4 | 14.5 | 0.00 | 0.00 | 0.00 | 45 | 1012.4 |
| 20260508183526 | 20 | 189 | 4.8 | 14.5 | 0.00 | 0.00 | 0.00 | 47 | 1012.4 |
| 20260508183040 | 20 | 180 | 3.2 | 16.1 | 0.00 | 0.00 | 0.00 | 52 | 1012.4 |
| 20260508182524 | 20 | 175 | 4.8 | 19.3 | 0.00 | 0.00 | 0.00 | 48 | 1012.7 |
| 20260508182029 | 19 | 169 | 1.6 | 19.3 | 0.00 | 0.00 | 0.00 | 52 | 1012.8 |
| 20260508181536 | 19 | 267 | 3.2 | 17.7 | 0.00 | 0.00 | 0.00 | 48 | 1012.8 |
| 20260508181026 | 20 | 198 | 3.2 | 17.7 | 0.00 | 0.00 | 0.00 | 48 | 1013.0 |
| 20260508180524 | 20 | 182 | 6.4 | 16.1 | 0.00 | 0.00 | 0.00 | 46 | 1013.0 |
| 20260508180039 | 20 | 225 | 1.6 | 14.5 | 0.00 | 0.00 | 0.00 | 49 | 1013.0 |
| 20260508175527 | 20 | 216 | 3.2 | 20.9 | 0.00 | 0.00 | 0.00 | 48 | 1013.1 |
| 20260508175023 | 19 | 205 | 4.8 | 20.9 | 0.00 | 0.00 | 0.00 | 49 | 1013.1 |
| 20260508174551 | 19 | 157 | 6.4 | 17.7 | 0.00 | 0.00 | 0.00 | 47 | 1013.3 |
| 20260508174024 | 20 | 214 | 6.4 | 17.7 | 0.00 | 0.00 | 0.00 | 47 | 1013.3 |
| 20260508173524 | 20 | 132 | 4.8 | 17.7 | 0.00 | 0.00 | 0.00 | 50 | 1013.4 |
| 20260508173038 | 19 | 134 | 4.8 | 19.3 | 0.00 | 0.00 | 0.00 | 47 | 1013.4 |
| 20260508172525 | 19 | 182 | 4.8 | 19.3 | 0.00 | 0.00 | 0.00 | 46 | 1013.5 |
| 20260508172024 | 20 | 169 | 3.2 | 20.9 | 0.00 | 0.00 | 0.00 | 53 | 1013.6 |
| 20260508171538 | 20 | 173 | 3.2 | 20.9 | 0.00 | 0.00 | 0.00 | 52 | 1013.5 |
| 20260508171023 | 19 | 202 | 6.4 | 20.9 | 0.00 | 0.00 | 0.00 | 48 | 1013.7 |
| 20260508170523 | 19 | 225 | 4.8 | 14.5 | 0.00 | 0.00 | 0.00 | 50 | 1013.7 |
| 20260508170039 | 19 | 153 | 3.2 | 16.1 | 0.00 | 0.00 | 0.00 | 51 | 1013.9 |
| 20260508165525 | 19 | 223 | 4.8 | 29.0 | 0.00 | 0.00 | 0.00 | 49 | 1014.0 |
| 20260508165025 | 19 | 192 | 6.4 | 29.0 | 0.00 | 0.00 | 0.00 | 50 | 1014.2 |
| 20260508164538 | 19 | 223 | 6.4 | 17.7 | 0.00 | 0.00 | 0.00 | 50 | 1014.2 |
| 20260508164023 | 19 | 136 | 3.2 | 20.9 | 0.00 | 0.00 | 0.00 | 50 | 1014.3 |
| 20260508163523 | 19 | 187 | 4.8 | 20.9 | 0.00 | 0.00 | 0.00 | 51 | 1014.4 |
| 20260508163037 | 18 | 247 | 8.0 | 19.3 | 0.00 | 0.00 | 0.00 | 50 | 1014.5 |
| 20260508162524 | 18 | 156 | 4.8 | 14.5 | 0.00 | 0.00 | 0.00 | 54 | 1014.5 |
| 20260508162022 | 18 | 240 | 4.8 | 20.9 | 0.00 | 0.00 | 0.00 | 52 | 1014.6 |
| 20260508161539 | 18 | 223 | 6.4 | 22.5 | 0.00 | 0.00 | 0.00 | 53 | 1014.6 |
| 20260508161024 | 18 | 226 | 4.8 | 22.5 | 0.00 | 0.00 | 0.00 | 52 | 1014.6 |
| 20260508160524 | 18 | 178 | 4.8 | 22.5 | 0.00 | 0.00 | 0.00 | 53 | 1014.6 |
| 20260508160040 | 17 | 292 | 6.4 | 22.5 | 0.00 | 0.00 | 0.00 | 55 | 1014.6 |
| 20260508155528 | 17 | 178 | 6.4 | 22.5 | 0.00 | 0.00 | 0.00 | 53 | 1014.7 |
| 20260508155024 | 17 | 107 | 8.0 | 20.9 | 0.00 | 0.00 | 0.00 | 54 | 1014.8 |
| 20260508154544 | 17 | 150 | 1.6 | 19.3 | 0.00 | 0.00 | 0.00 | 55 | 1014.8 |
| 20260508154025 | 17 | 146 | 4.8 | 19.3 | 0.00 | 0.00 | 0.00 | 57 | 1014.9 |
| 20260508153527 | 17 | 190 | 4.8 | 19.3 | 0.00 | 0.00 | 0.00 | 56 | 1014.9 |
| 20260508153040 | 17 | 189 | 6.4 | 19.3 | 0.00 | 0.00 | 0.00 | 55 | 1015.0 |
| 20260508152523 | 17 | 215 | 6.4 | 19.3 | 0.00 | 0.00 | 0.00 | 55 | 1015.2 |
| 20260508152023 | 17 | 0 | 4.8 | 14.5 | 0.00 | 0.00 | 0.00 | 57 | 1015.2 |
| 20260508151538 | 16 | 179 | 3.2 | 14.5 | 0.00 | 0.00 | 0.00 | 57 | 1015.3 |
| 20260508151025 | 16 | 191 | 6.4 | 14.5 | 0.00 | 0.00 | 0.00 | 56 | 1015.3 |
| 20260508150523 | 16 | 179 | 3.2 | 17.7 | 0.00 | 0.00 | 0.00 | 58 | 1015.4 |
| 20260508150052 | 16 | 189 | 6.4 | 20.9 | 0.00 | 0.00 | 0.00 | 57 | 1015.4 |
| 20260508145523 | 16 | 172 | 6.4 | 20.9 | 0.00 | 0.00 | 0.00 | 58 | 1015.4 |
| 20260508145024 | 15 | 163 | 3.2 | 14.5 | 0.00 | 0.00 | 0.00 | 59 | 1015.5 |
| 20260508144543 | 15 | 0 | 3.2 | 16.1 | 0.00 | 0.00 | 0.00 | 58 | 1015.6 |
| 20260508144023 | 15 | 198 | 3.2 | 16.1 | 0.00 | 0.00 | 0.00 | 58 | 1015.7 |
| 20260508143526 | 15 | 194 | 6.4 | 16.1 | 0.00 | 0.00 | 0.00 | 58 | 1015.5 |
| 20260508143052 | 15 | 192 | 3.2 | 17.7 | 0.00 | 0.00 | 0.00 | 58 | 1015.5 |
| 20260508142524 | 14 | 194 | 4.8 | 17.7 | 0.00 | 0.00 | 0.00 | 59 | 1015.6 |
| 20260508142024 | 14 | 147 | 4.8 | 17.7 | 0.00 | 0.00 | 0.00 | 59 | 1015.7 |
| 20260508141538 | 14 | 180 | 3.2 | 16.1 | 0.00 | 0.00 | 0.00 | 60 | 1015.7 |
| 20260508141026 | 13 | 207 | 4.8 | 17.7 | 0.00 | 0.00 | 0.00 | 59 | 1015.9 |
| 20260508140522 | 13 | 201 | 4.8 | 19.3 | 0.00 | 0.00 | 0.00 | 60 | 1015.9 |
| 20260508140047 | 13 | 198 | 6.4 | 19.3 | 0.00 | 0.00 | 0.00 | 60 | 1015.9 |
| 20260508135523 | 13 | 200 | 3.2 | 17.7 | 0.00 | 0.00 | 0.00 | 62 | 1015.9 |
| 20260508135024 | 13 | 145 | 8.0 | 17.7 | 0.00 | 0.00 | 0.00 | 59 | 1016.0 |
| 20260508134540 | 13 | 142 | 6.4 | 16.1 | 0.00 | 0.00 | 0.00 | 60 | 1016.0 |
| 20260508134023 | 13 | 170 | 3.2 | 14.5 | 0.00 | 0.00 | 0.00 | 61 | 1016.0 |
| 20260508133524 | 13 | 151 | 6.4 | 12.9 | 0.00 | 0.00 | 0.00 | 60 | 1016.0 |
| 20260508133038 | 12 | 182 | 3.2 | 14.5 | 0.00 | 0.00 | 0.00 | 61 | 1016.0 |
| 20260508132523 | 12 | 160 | 6.4 | 16.1 | 0.00 | 0.00 | 0.00 | 60 | 1016.0 |
| 20260508132023 | 12 | 197 | 3.2 | 16.1 | 0.00 | 0.00 | 0.00 | 60 | 1016.0 |
| 20260508131537 | 12 | 235 | 4.8 | 16.1 | 0.00 | 0.00 | 0.00 | 60 | 1016.0 |
| 20260508131023 | 12 | 0 | 3.2 | 16.1 | 0.00 | 0.00 | 0.00 | 61 | 1016.0 |
| 20260508130523 | 12 | 223 | 3.2 | 16.1 | 0.00 | 0.00 | 0.00 | 61 | 1015.9 |
| 20260508130040 | 12 | 0 | 3.2 | 9.7 | 0.00 | 0.00 | 0.00 | 64 | 1016.0 |
| 20260508125524 | 12 | 247 | 0.0 | 11.3 | 0.00 | 0.00 | 0.00 | 63 | 1016.0 |
| 20260508125021 | 11 | 175 | 0.0 | 11.3 | 0.00 | 0.00 | 0.00 | 64 | 1016.0 |
| 20260508124537 | 11 | 186 | 3.2 | 11.3 | 0.00 | 0.00 | 0.00 | 65 | 1015.9 |
| 20260508124021 | 11 | 208 | 0.0 | 9.7 | 0.00 | 0.00 | 0.00 | 65 | 1015.8 |
| 20260508123523 | 11 | 232 | 1.6 | 9.7 | 0.00 | 0.00 | 0.00 | 66 | 1015.8 |
| 20260508123038 | 11 | 238 | 1.6 | 16.1 | 0.00 | 0.00 | 0.00 | 67 | 1015.8 |
| 20260508122524 | 10 | 229 | 3.2 | 16.1 | 0.00 | 0.00 | 0.00 | 66 | 1015.7 |
| 20260508122023 | 10 | 172 | 1.6 | 6.4 | 0.00 | 0.00 | 0.00 | 68 | 1015.8 |
| 20260508121538 | 10 | 194 | 1.6 | 6.4 | 0.00 | 0.00 | 0.00 | 68 | 1015.8 |
| 20260508121023 | 10 | 0 | 1.6 | 6.4 | 0.00 | 0.00 | 0.00 | 70 | 1015.7 |
| 20260508120523 | 10 | 188 | 1.6 | 8.0 | 0.00 | 0.00 | 0.00 | 71 | 1015.7 |
| 20260508120038 | 9 | 199 | 1.6 | 8.0 | 0.00 | 0.00 | 0.00 | 71 | 1015.7 |
| 20260508115523 | 9 | 0 | 0.0 | 6.4 | 0.00 | 0.00 | 0.00 | 73 | 1015.8 |
| 20260508115022 | 8 | 0 | 0.0 | 6.4 | 0.00 | 0.00 | 0.00 | 73 | 1015.7 |
| 20260508114537 | 8 | 183 | 0.0 | 3.2 | 0.00 | 0.00 | 0.00 | 74 | 1015.7 |
| 20260508114023 | 8 | 0 | 0.0 | 3.2 | 0.00 | 0.00 | 0.00 | 75 | 1015.6 |
| 20260508113523 | 8 | 0 | 0.0 | 3.2 | 0.00 | 0.00 | 0.00 | 74 | 1015.7 |
| 20260508113040 | 8 | 0 | 0.0 | 3.2 | 0.00 | 0.00 | 0.00 | 73 | 1015.6 |
| 20260508112527 | 8 | 0 | 0.0 | 3.2 | 0.00 | 0.00 | 0.00 | 73 | 1015.4 |
| 20260508112024 | 8 | 0 | 0.0 | 3.2 | 0.00 | 0.00 | 0.00 | 74 | 1015.4 |
| 20260508111537 | 8 | 0 | 0.0 | 3.2 | 0.00 | 0.00 | 0.00 | 73 | 1015.3 |
| 20260508111027 | 8 | 0 | 0.0 | 3.2 | 0.00 | 0.00 | 0.00 | 76 | 1015.3 |
| 20260508110523 | 8 | 205 | 0.0 | 3.2 | 0.00 | 0.00 | 0.00 | 76 | 1015.3 |
| 20260508110037 | 8 | 0 | 0.0 | 1.6 | 0.00 | 0.00 | 0.00 | 75 | 1015.2 |
| 20260508105528 | 8 | 0 | 0.0 | 3.2 | 0.00 | 0.00 | 0.00 | 75 | 1015.1 |
| 20260508105026 | 8 | 0 | 0.0 | 3.2 | 0.00 | 0.00 | 0.00 | 73 | 1015.1 |
| 20260508104537 | 8 | 0 | 0.0 | 4.8 | 0.00 | 0.00 | 0.00 | 73 | 1015.2 |
| 20260508104023 | 8 | 0 | 0.0 | 4.8 | 0.00 | 0.00 | 0.00 | 74 | 1015.0 |
| 20260508103526 | 8 | 0 | 0.0 | 4.8 | 0.00 | 0.00 | 0.00 | 73 | 1015.2 |
| 20260508103040 | 8 | 0 | 0.0 | 3.2 | 0.00 | 0.00 | 0.00 | 74 | 1015.3 |
| 20260508102523 | 8 | 0 | 0.0 | 3.2 | 0.00 | 0.00 | 0.00 | 74 | 1015.2 |
| 20260508102026 | 7 | 0 | 0.0 | 0.0 | 0.00 | 0.00 | 0.00 | 76 | 1015.3 |
| 20260508101545 | 7 | 0 | 0.0 | 0.0 | 0.00 | 0.00 | 0.00 | 78 | 1015.2 |
| 20260508101025 | 7 | 0 | 0.0 | 0.0 | 0.00 | 0.00 | 0.00 | 80 | 1015.2 |
| 20260508100523 | 7 | 0 | 0.0 | 0.0 | 0.00 | 0.00 | 0.00 | 81 | 1015.2 |
| 20260508100039 | 7 | 0 | 0.0 | 1.6 | 0.00 | 0.00 | 0.00 | 81 | 1015.3 |
| 20260508095526 | 7 | 0 | 0.0 | 1.6 | 0.00 | 0.00 | 0.00 | 80 | 1015.2 |
| 20260508095026 | 7 | 202 | 0.0 | 3.2 | 0.00 | 0.00 | 0.00 | 80 | 1015.3 |
| 20260508094538 | 7 | 0 | 0.0 | 3.2 | 0.00 | 0.00 | 0.00 | 80 | 1015.2 |
| 20260508094026 | 7 | 0 | 0.0 | 4.8 | 0.00 | 0.00 | 0.00 | 81 | 1015.2 |
| 20260508093527 | 6 | 0 | 0.0 | 4.8 | 0.00 | 0.00 | 0.00 | 82 | 1015.3 |
| 20260508093038 | 6 | 0 | 0.0 | 4.8 | 0.00 | 0.00 | 0.00 | 83 | 1015.2 |
| 20260508092523 | 6 | 0 | 0.0 | 3.2 | 0.00 | 0.00 | 0.00 | 87 | 1015.2 |
| 20260508092026 | 5 | 0 | 0.0 | 3.2 | 0.00 | 0.00 | 0.00 | 88 | 1015.1 |
| 20260508091538 | 5 | 203 | 0.0 | 0.0 | 0.00 | 0.00 | 0.00 | 90 | 1015.2 |
| 20260508091025 | 5 | 0 | 0.0 | 0.0 | 0.00 | 0.00 | 0.00 | 91 | 1015.2 |
| 20260508090527 | 5 | 0 | 0.0 | 0.0 | 0.00 | 0.00 | 0.00 | 92 | 1015.2 |
| 20260508090045 | 5 | 0 | 0.0 | 0.0 | 0.00 | 0.00 | 0.00 | 91 | 1015.3 |
| 20260508085530 | 5 | 0 | 0.0 | 0.0 | 0.00 | 0.00 | 0.00 | 90 | 1015.3 |
| 20260508085024 | 5 | 0 | 0.0 | 0.0 | 0.00 | 0.00 | 0.00 | 90 | 1015.3 |
| 20260508084538 | 5 | 0 | 0.0 | 0.0 | 0.00 | 0.00 | 0.00 | 90 | 1015.3 |
| 20260508084024 | 5 | 0 | 0.0 | 0.0 | 0.00 | 0.00 | 0.00 | 90 | 1015.2 |
| 20260508083527 | 5 | 0 | 0.0 | 0.0 | 0.00 | 0.00 | 0.00 | 90 | 1015.1 |
| 20260508083048 | 5 | 0 | 0.0 | 0.0 | 0.00 | 0.00 | 0.00 | 90 | 1015.1 |
| 20260508082524 | 5 | 0 | 0.0 | 0.0 | 0.00 | 0.00 | 0.00 | 90 | 1015.2 |
| 20260508082024 | 5 | 0 | 0.0 | 0.0 | 0.00 | 0.00 | 0.00 | 90 | 1015.1 |
| 20260508081536 | 5 | 0 | 0.0 | 0.0 | 0.00 | 0.00 | 0.00 | 89 | 1015.1 |
| 20260508081023 | 5 | 0 | 0.0 | 0.0 | 0.00 | 0.00 | 0.00 | 88 | 1015.1 |
| 20260508080525 | 5 | 0 | 0.0 | 0.0 | 0.00 | 0.00 | 0.00 | 89 | 1015.0 |
| 20260508080057 | 5 | 0 | 0.0 | 0.0 | 0.00 | 0.00 | 0.00 | 89 | 1015.1 |
| 20260508075524 | 5 | 0 | 0.0 | 0.0 | 0.00 | 0.00 | 0.00 | 89 | 1015.0 |
| 20260508075023 | 5 | 0 | 0.0 | 0.0 | 0.00 | 0.00 | 0.00 | 88 | 1015.0 |
| 20260508074538 | 5 | 0 | 0.0 | 0.0 | 0.00 | 0.00 | 0.00 | 88 | 1015.1 |
| 20260508074023 | 5 | 0 | 0.0 | 0.0 | 0.00 | 0.00 | 0.00 | 88 | 1015.0 |
| 20260508073524 | 5 | 0 | 0.0 | 0.0 | 0.00 | 0.00 | 0.00 | 88 | 1015.0 |
| 20260508073048 | 5 | 0 | 0.0 | 0.0 | 0.00 | 0.00 | 0.00 | 88 | 1015.0 |
| 20260508072523 | 5 | 0 | 0.0 | 0.0 | 0.00 | 0.00 | 0.00 | 88 | 1014.9 |
| 20260508072023 | 5 | 0 | 0.0 | 0.0 | 0.00 | 0.00 | 0.00 | 88 | 1015.0 |
| 20260508071544 | 5 | 0 | 0.0 | 0.0 | 0.00 | 0.00 | 0.00 | 86 | 1015.1 |
| 20260508071023 | 5 | 0 | 0.0 | 0.0 | 0.00 | 0.00 | 0.00 | 85 | 1015.2 |
| 20260508070523 | 5 | 0 | 0.0 | 0.0 | 0.00 | 0.00 | 0.00 | 85 | 1015.2 |
| 20260508070039 | 5 | 0 | 0.0 | 0.0 | 0.00 | 0.00 | 0.00 | 85 | 1015.2 |
| 20260508065524 | 5 | 0 | 0.0 | 0.0 | 0.00 | 0.00 | 0.00 | 85 | 1015.3 |
| 20260508065023 | 5 | 0 | 0.0 | 0.0 | 0.00 | 0.00 | 0.00 | 86 | 1015.2 |
| 20260508064545 | 6 | 0 | 0.0 | 0.0 | 0.00 | 0.00 | 0.00 | 88 | 1015.2 |
| 20260508064025 | 6 | 0 | 0.0 | 0.0 | 0.00 | 0.00 | 0.00 | 88 | 1015.2 |
| 20260508063523 | 6 | 0 | 0.0 | 0.0 | 0.00 | 0.00 | 0.00 | 87 | 1015.4 |
| 20260508063037 | 6 | 0 | 0.0 | 0.0 | 0.00 | 0.00 | 0.00 | 84 | 1015.7 |
| 20260508062524 | 6 | 0 | 0.0 | 0.0 | 0.00 | 0.00 | 0.00 | 84 | 1015.7 |
| 20260508062024 | 6 | 0 | 0.0 | 0.0 | 0.00 | 0.00 | 0.00 | 84 | 1015.7 |
| 20260508061538 | 6 | 0 | 0.0 | 0.0 | 0.00 | 0.00 | 0.00 | 85 | 1015.8 |
| 20260508061024 | 6 | 0 | 0.0 | 0.0 | 0.00 | 0.00 | 0.00 | 85 | 1015.8 |
| 20260508060524 | 6 | 0 | 0.0 | 0.0 | 0.00 | 0.00 | 0.00 | 84 | 1015.8 |
| 20260508060036 | 6 | 0 | 0.0 | 0.0 | 0.00 | 0.00 | 0.00 | 83 | 1015.8 |
| 20260508055522 | 6 | 0 | 0.0 | 0.0 | 0.00 | 0.00 | 0.00 | 84 | 1015.9 |
| 20260508055024 | 6 | 0 | 0.0 | 0.0 | 0.00 | 0.00 | 0.00 | 85 | 1015.8 |
| 20260508054545 | 6 | 0 | 0.0 | 0.0 | 0.00 | 0.00 | 0.00 | 86 | 1015.7 |
| 20260508054025 | 6 | 0 | 0.0 | 0.0 | 0.00 | 0.00 | 0.00 | 85 | 1015.7 |
| 20260508053524 | 6 | 0 | 0.0 | 0.0 | 0.00 | 0.00 | 0.00 | 81 | 1015.8 |
| 20260508053040 | 6 | 0 | 0.0 | 0.0 | 0.00 | 0.00 | 0.00 | 80 | 1015.8 |
| 20260508052524 | 6 | 0 | 0.0 | 0.0 | 0.00 | 0.00 | 0.00 | 78 | 1015.9 |
| 20260508052022 | 6 | 0 | 0.0 | 0.0 | 0.00 | 0.00 | 0.00 | 79 | 1015.8 |
| 20260508051543 | 6 | 0 | 0.0 | 0.0 | 0.00 | 0.00 | 0.00 | 79 | 1015.8 |
| 20260508051029 | 6 | 0 | 0.0 | 0.0 | 0.00 | 0.00 | 0.00 | 79 | 1015.7 |
| 20260508050526 | 6 | 0 | 0.0 | 0.0 | 0.00 | 0.00 | 0.00 | 79 | 1015.8 |
| 20260508050049 | 6 | 0 | 0.0 | 0.0 | 0.00 | 0.00 | 0.00 | 80 | 1015.8 |
| 20260508045526 | 6 | 0 | 0.0 | 0.0 | 0.00 | 0.00 | 0.00 | 79 | 1015.7 |
| 20260508045023 | 6 | 0 | 0.0 | 0.0 | 0.00 | 0.00 | 0.00 | 80 | 1015.7 |